Regional Weather Roundup
Issued by NWS Cleveland, OH

Home | Current Version | Previous Version | Graphics & Text | Print | Product List | Glossary On
Versions: 1 2 3 4 5 6 7 8 9 10 11 12 13 14 15 16 17 18 19 20 21 22 23 24 25 26 27 28 29 30 31 32 33 34 35 36 37 38 39 40 41 42 43 44 45 46 47 48 49 50
000
ASUS41 KCLE 021010
RWRCLE
OHIO REGIONAL WEATHER ROUNDUP
NATIONAL WEATHER SERVICE CLEVELAND, OH
500 AM EST FRI DEC 02 2016

NOTE: "FAIR" INDICATES FEW OR NO CLOUDS BELOW 12,000 FEET WITH NO
SIGNIFICANT WEATHER AND/OR OBSTRUCTIONS TO VISIBILITY.

OHZ001>008-015>018-024>027-034-035-043-044-021100-
   NORTHWEST OHIO

CITY           SKY/WX    TMP DP  RH WIND       PRES   REMARKS
DEFIANCE       CLOUDY    38  31  76 SW9       30.02S
FINDLAY        CLOUDY    37  30  75 W15       30.02R
TOLEDO EXPRESS CLOUDY    36  33  89 W15       29.99R
TOLEDO EXEC    PTCLDY    35  33  92 SW10      30.00S WCI  27
LIMA           CLOUDY    36  31  82 W16       30.04R
$$

OHZ009>014-019>023-028>033-038-089-021100-
   NORTHEAST OHIO

CITY           SKY/WX    TMP DP  RH WIND       PRES   REMARKS
CLE-HOPKINS    PTCLDY    36  29  75 SW9       30.00S
CLE-LAKEFRONT  CLOUDY    38  31  76 SW16G23   29.98R
CUY CO. ARPT   NOT AVBL
LORAIN-ELYRIA  CLEAR     34  28  79 W13       29.99R WCI  25
ASHTABULA      CLOUDY    38  34  85 SW12      29.94R
AKRON-CANTON   MOCLDY    36  29  75 W8        29.99R
WOOSTER        CLOUDY    35  29  78 SW9       30.00R WCI  28
MANSFIELD      CLOUDY    35  29  78 SW12      30.00R WCI  27
YOUNGSTOWN     CLOUDY    37  30  75 SW12      29.96R
$$

OHZ042-051>053-060>062-070>072-077>081-021100-
  SOUTHWEST OHIO

CITY           SKY/WX    TMP DP  RH WIND       PRES   REMARKS
CINC-COVINGTON CLOUDY    36  30  79 W6        30.10R
CINC-LUNKEN    CLOUDY    38  30  73 W10       30.14R
HAMILTON       CLOUDY    37  28  70 W6        30.12R
DAYTON         CLOUDY    36  29  75 W7        30.08R
WRIGHT-PAT AFB CLOUDY    37  30  75 SW10      30.08R
DAYTON GENERAL CLOUDY    36  27  69 W7        30.08R
WILMINGTON     CLOUDY    35  28  75 W13       30.08R WCI  26
$$

OHZ036-037-039>041-045>050-054>059-063>069-073>076-082>088-021100-
  CENTRAL AND SOUTHEAST OHIO

CITY           SKY/WX    TMP DP  RH WIND       PRES   REMARKS
COLUMBUS       CLOUDY    37  30  75 W14       30.06R
OSU AIRPORT    CLOUDY    37  30  75 W9        30.06R
BOLTON FIELD   CLOUDY    36  31  80 CALM      30.07R
RICKENBACK AFB CLOUDY    37  31  79 SW6       30.07R
NEWARK         CLOUDY    37  29  72 W7        30.05R
MARION         CLOUDY    37  29  72 W9        30.04R
LANCASTER      CLOUDY    37  31  78 W6        30.07S
ZANESVILLE     CLOUDY    38  28  67 W10       30.05R
NEW PHILLY     CLOUDY    36  30  79 SW5       30.03R
$$




USA.gov is the U.S. government's official web portal to all federal, state and local government web resources and services.